Location: ???????
(54.6339°N, 39.4245°E)
Time: 14:27:11
(UTC+00:00)

SL-16 R/B - Pass Details

Date: 19 May 2025
Orbit: 841 x 844 km, 71.0° (Epoch: 20 June)

Event Time Altitude Azimuth Distance (km) Brightness Sun altitude
Rises 20:58:28 0° 324° (NW) 3,415 6.4 -15.3°
Reaches altitude 10° 21:01:00 10° 319° (NW) 2,476 5.4 -15.3°
Maximum altitude 21:06:22 45° 248° (WSW) 1,146 2.7 -15.4°
Enters shadow 21:09:30 23° 189° (S) 1,720 3.2 -15.4°
